Regional Weather Roundup
Issued by NWS

Home | Current Version | Previous Version | Graphics & Text | Print | Product List | Glossary On
Versions: 1 2 3 4 5 6 7 8 9 10 11 12 13 14 15 16 17 18 19 20 21 22 23 24 25 26 27 28 29 30 31 32 33 34 35 36 37 38 39 40 41 42 43 44 45 46 47 48 49 50
327
ASUS45 KBOU 292210
RWRCO

WEATHER ROUNDUP FOR COLORADO
NATIONAL WEATHER SERVICE DENVER/BOULDER CO
400 PM MDT THU SEP 29 2016

NOTE: "FAIR" INDICATES FEW OR NO CLOUDS BELOW 12000 FEET WITH NO
SIGNIFICANT WEATHER AND/OR OBSTRUCTIONS TO VISIBILITY.

COZ001>005-013-030-031-292300-
...NORTHWEST COLORADO...

CITY           SKY/WX    TMP DP  RH WIND       PRES   REMARKS
CRAIG          CLOUDY    59  52  77 NW3       30.41F
HAYDEN         FAIR      59  45  58 W12       30.42R
MEEKER         CLOUDY    60  53  77 E3        30.41F
MOUNT WERNER   NOT AVBL
STEAMBOAT SPGS FAIR      66  45  46 SW14      30.40S
WALDEN           N/A     70  32  24 SW12      30.43S
$$

COZ006>008-011-292300-
...WEST CENTRAL VALLEYS...

CITY           SKY/WX    TMP DP  RH WIND       PRES   REMARKS
GRAND JUNCTION CLOUDY    63  55  75 CALM      30.34F
MONTROSE       CLOUDY    64  46  52 N10       30.39F
EAGLE          CLOUDY    70  37  30 W13       30.39F
RIFLE          CLOUDY    66  51  58 W7        30.36S
DELTA          LGT RAIN  69  55  60 CALM      30.37S
NUCLA          NOT AVBL
$$

COZ017>023-064>068-292300-
...SOUTHWEST COLORADO...

CITY           SKY/WX    TMP DP  RH WIND       PRES   REMARKS
DURANGO        PTSUNNY   56  48  74 NW5       30.49F
CORTEZ         LGT RAIN  57  54  89 CALM      30.44F
PAGOSA SPRINGS PTSUNNY   57  43  58 NW6       30.53S
TELLURIDE      CLOUDY    55  38  54 S8        30.57F
WOLF CREEK PAS CLOUDY    39  36  87 SW15G22   30.76S
$$

COZ009-010-012-014-032>034-037-058>063-292300-
...CENTRAL COLORADO...

CITY           SKY/WX    TMP DP  RH WIND       PRES   REMARKS
ASPEN          CLOUDY    66  35  31 NW7       30.43F
BUENA VISTA    FAIR      71  24  17 SE14G20   30.43F
COPPER MTN     DRIZZLE   52  32  46 S10       30.72S
BERTHOUD PASS  CLOUDY    45  32  61 CALM      30.74S
COTTONWOOD PAS CLOUDY    64  25  22 CALM      30.57F
GUNNISON       PTSUNNY   68  34  28 VRB5      30.43F
KREMMLING      PTSUNNY   70  30  23 SW17G26   30.41S
LEADVILLE      CLOUDY    58  28  32 CALM      30.56F
MONARCH PASS   FAIR      50  27  40 S9        30.82S
SALIDA         FAIR      73  25  16 S15G25    30.48F
SUNLIGHT       CLOUDY    50  43  76 SW8G18    30.66F
WILKERSON PASS FAIR      59  21  23 SW9G17    30.68F
$$

COZ069>075-292300-
...SAN LUIS VALLEY/SANGRE DE CRISTO MOUNTAINS...

CITY           SKY/WX    TMP DP  RH WIND       PRES   REMARKS
ALAMOSA        FAIR      71  31  22 SE7       30.42F
LA VETA PASS   PTSUNNY   59  28  31 MISG      30.61S
SAGUACHE       NOT AVBL
$$

COZ035-036-038>040-292300-
...NORTHERN COLORADO FRONT RANGE...

CITY           SKY/WX    TMP DP  RH WIND       PRES   REMARKS
DENVER INTL AP FAIR      87  31  13 S15G26    30.20F
DMNS CITY PARK   N/A     80  39  23 N6G16     30.21F
AURORA         MOSUNNY   84  31  14 S16       30.24F
FRONT RANGE AP MOSUNNY   86  30  13 S14G24    30.24F
ERIE MUNI ARPT FAIR      80  37  22 N9G16     30.23S
BOULDER MUN AP FAIR      77  36  22 CALM      30.24F
CENTENNIAL     FAIR      82  30  15 S16G23    30.26F
BROOMFIELD     PTSUNNY   79  39  24 NW8       30.26F
FORT COLLINS   FAIR      81  41  24 NE5       30.21F
LONGMONT       FAIR      80  38  22 CALM      30.24F
$$

COZ041-046-047-076>085-087-088-292300-
...PIKES PEAK/PALMER DIVIDE AND SOUTHERN FOOTHILLS...

CITY           SKY/WX    TMP DP  RH WIND       PRES   REMARKS
COLO. SPRINGS  FAIR      78  31  17 S20       30.34F
A. F. ACADEMY  FAIR      76  31  19 SE17      30.34F
SCHRIEVER AFB  NOT AVBL
ELLICOTT       NOT AVBL
FALCON         FAIR      75  28  17 S17G25    30.39F
FORT CARSON    FAIR      79  33  19 S16       30.31F
LIMON          FAIR      79  29  16 S18G25    30.29F
MONUMENT HILL  FAIR      73  28  19 S22G31    30.38F
TRINIDAD       FAIR      79  23  12 S9G22     30.31F
$$

COZ042>045-048>051-090-091-292300-
...NORTHEAST COLORADO...

CITY           SKY/WX    TMP DP  RH WIND       PRES   REMARKS
GREELEY ARPT   FAIR      82  41  23 SE10G18   30.20F
AKRON          FAIR      79  39  23 SE23G33   30.26F
BURLINGTON     FAIR      77  39  25 S22G29    30.30F
WRAY           FAIR      79  41  25 SE17G28   30.27
STERLING       FAIR      81  43  26 S15       30.22F
HOLYOKE        FAIR      79  41  25 SE20G28   30.27F
FORT MORGAN    FAIR      85  33  15 SE12G23   30.21F
$$

COZ086-089-092>099-292300-
...SOUTHEAST COLORADO...

CITY           SKY/WX    TMP DP  RH WIND       PRES   REMARKS
PUEBLO         FAIR      86  33  15 SE18G25   30.22F
LA JUNTA       FAIR      86  41  20 SE10G17   30.23F
LAMAR          FAIR      84  43  23 SE16G24   30.24F
SPRINGFIELD      N/A     76  44  32 S17       30.31F
$$




USA.gov is the U.S. government's official web portal to all federal, state and local government web resources and services.